Pickwick Lake Weather Center

Moon Phase Calendar



Pickwick Lake Water Level
Online Cameras

 


      

Current Conditions in Cherokee
2/2/2023 3:06:43 PM

37°F
Feels Like 31
Rain
Humidity
96%
Pressure
30.21"
Wind
6.8 mph (NNW)
Dew Point
36°F
UV Index
0/10 (Low)
Visibility
6 mi

Hourly Forecast

Date & Time Thu, Feb 2
3:00 PM
Thu, Feb 2
4:00 PM
Thu, Feb 2
5:00 PM
Thu, Feb 2
6:00 PM
Thu, Feb 2
7:00 PM
Thu, Feb 2
8:00 PM
Thu, Feb 2
9:00 PM
Thu, Feb 2
10:00 PM
Thu, Feb 2
11:00 PM
Fri, Feb 3
12:00 AM
Fri, Feb 3
1:00 AM
Fri, Feb 3
2:00 AM
Fri, Feb 3
3:00 AM
Fri, Feb 3
4:00 AM
Fri, Feb 3
5:00 AM
Fri, Feb 3
6:00 AM
Fri, Feb 3
7:00 AM
Fri, Feb 3
8:00 AM
Fri, Feb 3
9:00 AM
Fri, Feb 3
10:00 AM
Fri, Feb 3
11:00 AM
Fri, Feb 3
12:00 PM
Fri, Feb 3
1:00 PM
Fri, Feb 3
2:00 PM
Fri, Feb 3
3:00 PM
Fri, Feb 3
4:00 PM
Fri, Feb 3
5:00 PM
Fri, Feb 3
6:00 PM
Fri, Feb 3
7:00 PM
Fri, Feb 3
8:00 PM
Fri, Feb 3
9:00 PM
Fri, Feb 3
10:00 PM
Fri, Feb 3
11:00 PM
Sat, Feb 4
12:00 AM
Sat, Feb 4
1:00 AM
Sat, Feb 4
2:00 AM
Sat, Feb 4
3:00 AM
Sat, Feb 4
4:00 AM
Sat, Feb 4
5:00 AM
Sat, Feb 4
6:00 AM
Sat, Feb 4
7:00 AM
Sat, Feb 4
8:00 AM
Sat, Feb 4
9:00 AM
Sat, Feb 4
10:00 AM
Sat, Feb 4
11:00 AM
Sat, Feb 4
12:00 PM
Sat, Feb 4
1:00 PM
Sat, Feb 4
2:00 PM
Condition
Rain

Rain

Rain

Rain

Clouds

Clouds

Clouds

Clouds

Clouds

Clouds

Clouds

Clouds

Clouds

Clouds

Clouds

Clouds

Clear

Clouds

Clouds

Clouds

Clouds

Clear

Clear

Clear

Clear

Clear

Clear

Clear

Clear

Clear

Clear

Clear

Clear

Clear

Clear

Clear

Clear

Clear

Clear

Clear

Clear

Clear

Clouds

Clouds

Clouds

Clouds

Clouds

Clouds
Temperature 37°F37°F38°F38°F38°F38°F37°F36°F34°F35°F34°F34°F32°F31°F30°F30°F29°F30°F33°F35°F37°F39°F40°F41°F41°F40°F36°F32°F31°F30°F30°F29°F29°F29°F29°F29°F29°F29°F29°F30°F30°F34°F39°F43°F46°F49°F51°F51°F
Feels Like 31°F34°F34°F35°F33°F33°F32°F31°F28°F30°F29°F28°F25°F24°F23°F22°F21°F22°F24°F27°F30°F33°F34°F35°F36°F34°F31°F28°F26°F26°F25°F26°F25°F25°F24°F24°F25°F25°F29°F26°F25°F30°F35°F39°F43°F46°F47°F48°F
Cloudiness 100%100%100%100%100%100%100%100%100%100%100%100%79%63%59%50%8%14%18%15%13%10%0%0%0%0%0%0%0%0%0%0%0%0%0%0%0%0%0%0%0%3%11%33%46%55%100%100%
Visibility 6 mi6 mi6 mi6 mi6 mi6 mi6 mi6 mi6 mi6 mi6 mi6 mi6 mi6 mi6 mi6 mi6 mi6 mi6 mi6 mi6 mi6 mi6 mi6 mi6 mi6 mi6 mi6 mi6 mi6 mi6 mi6 mi6 mi6 mi6 mi6 mi6 mi6 mi6 mi6 mi6 mi6 mi6 mi6 mi6 mi6 mi6 mi6 mi
Precipitation 79%79%75%75%18%18%14%11%11%7%0%0%0%0%0%0%0%0%0%0%0%0%0%0%0%0%0%0%0%0%0%0%0%0%0%0%0%0%0%0%0%0%0%0%0%0%0%0%
Humidity 96%95%95%95%95%94%92%90%90%86%86%82%83%83%85%88%90%86%75%63%54%49%46%44%44%47%57%65%68%68%67%65%65%64%64%64%63%62%60%58%58%49%42%39%38%37%38%40%
Dew Point 36°F36°F37°F37°F37°F36°F34°F33°F31°F30°F30°F29°F27°F26°F26°F26°F26°F26°F25°F23°F22°F21°F21°F20°F20°F21°F22°F22°F21°F20°F19°F18°F18°F18°F18°F18°F17°F17°F17°F16°F16°F16°F17°F19°F22°F24°F26°F27°F
Pressure 30.21"30.21"30.21"30.21"30.24"30.24"30.24"30.27"30.24"30.27"30.27"30.3"30.3"30.33"30.36"30.39"30.42"30.45"30.47"30.47"30.47"30.47"30.45"30.45"30.45"30.45"30.47"30.5"30.5"30.5"30.53"30.53"30.53"30.5"30.5"30.5"30.47"30.47"30.47"30.47"30.47"30.47"30.47"30.47"30.45"30.39"30.36"30.33"
Wind Speed 6.8 mph4.7 mph4.7 mph4.4 mph6 mph6.4 mph6.7 mph6.6 mph7.4 mph4.9 mph5.2 mph6.6 mph7.8 mph7.7 mph8.5 mph8.6 mph8.3 mph9.4 mph11 mph10.7 mph10 mph9.8 mph9.5 mph8.8 mph7.9 mph7.8 mph6 mph5.1 mph4.7 mph4.3 mph4 mph3.6 mph4 mph3.9 mph4.2 mph4.1 mph3.9 mph3.8 mph2.2 mph3.7 mph4.6 mph4.5 mph4.9 mph6 mph7.5 mph7.3 mph7.6 mph7.5 mph
Wind
Direction
333°
NNW
356°
N
326°
NW
14°
NNE
351°
N

N
353°
N
356°
N

N

N
351°
N
346°
NNW
348°
NNW
352°
N
352°
N
357°
N

N

N

N

N

N

N

N

N

N

N

N
11°
N
20°
NNE
33°
NNE
43°
NE
57°
ENE
56°
NE
72°
ENE
80°
E
94°
E
93°
E
103°
ESE
110°
ESE
124°
SE
134°
SE
149°
SSE
171°
S
165°
SSE
170°
S
176°
S
183°
S
188°
S

Daily Forecast

Date High Low Precip. Humidity
Today
Feb 2

Rain
39 °F
34 °F
100%
94%
Friday
Feb 3

Clear
41 °F
29 °F
7%
49%
Saturday
Feb 4

Clouds
51 °F
29 °F
0%
37%
Sunday
Feb 5

Clouds
58 °F
38 °F
0%
59%
Monday
Feb 6

Clouds
64 °F
43 °F
0%
59%
Tuesday
Feb 7

Rain
66 °F
50 °F
20%
62%
Wednesday
Feb 8

Rain
57 °F
48 °F
39%
64%
Thursday
Feb 9

Rain
69 °F
50 °F
100%
74%
Friday
Feb 10

Rain
61 °F
48 °F
98%
57%
Saturday
Feb 11

Clouds
46 °F
31 °F
15%
67%
Sunday
Feb 12

Clear
47 °F
28 °F
0%
31%
Monday
Feb 13

Clear
55 °F
32 °F
0%
38%
Tuesday
Feb 14

Clouds
58 °F
37 °F
0%
48%
Wednesday
Feb 15

Rain
64 °F
47 °F
76%
68%
Thursday
Feb 16

Rain
61 °F
59 °F
100%
94%
Friday
Feb 17

Rain
68 °F
61 °F
100%
92%

Temperature 8-14 Day Outlook



Precipitation 8-14 Day Outlook




Quick Links
Pickwick Lake News
Pickwick Lake Photos
Pickwick Lake Videos




About Us
Contact Us
Site Map
Search Site
Advertise With Us
   
www.PickwickLake.info
THE PICKWICK LAKE WEBSITE

Copyright 2023, Lakes Online
Privacy    |    Legal